This is the latest recevied weather packets stored in our database for station/object K6CQU-13. If no packets are shown the sender has not sent any weather packets the latest 10 day(s).
| Time | Temp. | Humidity | Pressure | Rain* | Wind** | Luminosity | Snow |
|---|---|---|---|---|---|---|---|
| 1787968816 | 23.33° C | 57% | 1013.4 hPa | 0 mm | - | 44 W/m² | - |
| 1787968518 | 23.33° C | 56% | 1013.5 hPa | 0 mm | - | 40 W/m² | - |
| 1787968216 | 23.33° C | 56% | 1013.4 hPa | 0 mm | - | 39 W/m² | - |
| 1787967916 | 23.33° C | 52% | 1013.2 hPa | 0 mm | - | 40 W/m² | - |
| 1787967616 | 23.33° C | 53% | 1013.3 hPa | 0 mm | - | 43 W/m² | - |
| 1787967316 | 23.89° C | 54% | 1013.3 hPa | 0 mm | - | 50 W/m² | - |
| 1787967016 | 23.89° C | 52% | 1013.4 hPa | 0 mm | - | 57 W/m² | - |
| 1787966716 | 23.89° C | 51% | 1013.5 hPa | 0 mm | - | 66 W/m² | - |
| 1787966416 | 23.89° C | 51% | 1013.6 hPa | 0 mm | - | 66 W/m² | - |
| 1787966116 | 23.89° C | 48% | 1013.7 hPa | 0 mm | - | 76 W/m² | - |
| 1787965816 | 23.89° C | 49% | 1013.7 hPa | 0 mm | - | 90 W/m² | - |
| 1787965516 | 23.89° C | 51% | 1013.7 hPa | 0 mm | - | 109 W/m² | - |
| 1787965216 | 23.89° C | 52% | 1013.7 hPa | 0 mm | - | 131 W/m² | - |
| 1787964916 | 23.89° C | 54% | 1013.5 hPa | 0 mm | - | 132 W/m² | - |
| 1787964616 | 23.89° C | 54% | 1013.5 hPa | 0 mm | - | 102 W/m² | - |
| 1787964316 | 24.44° C | 54% | 1013.5 hPa | 0 mm | - | 117 W/m² | - |
| 1787964016 | 24.44° C | 54% | 1013.5 hPa | 0 mm | - | 295 W/m² | - |
| 1787963716 | 23.89° C | 55% | 1013.4 hPa | 0 mm | - | 465 W/m² | - |
| 1787963416 | 23.33° C | 57% | 1013.5 hPa | 0 mm | - | 282 W/m² | - |
| 1787963116 | 22.78° C | 58% | 1013.4 hPa | 0 mm | - | 514 W/m² | - |
| 1787962816 | 22.22° C | 60% | 1013.4 hPa | 0 mm | - | 167 W/m² | - |
| 1787962516 | 22.22° C | 61% | 1013.4 hPa | 0 mm | - | 129 W/m² | - |
| 1787962216 | 22.22° C | 61% | 1013.6 hPa | 0 mm | - | 115 W/m² | - |
| 1787961918 | 22.22° C | 61% | 1013.5 hPa | 0 mm | - | 117 W/m² | - |
| 1787961618 | 22.22° C | 60% | 1013.5 hPa | 0 mm | - | 129 W/m² | - |
* Rain latest hour (hover to see other rain measurements)
** Current wind speed in m/s (hover to see current wind gust speed)